Weather past 2 weeks in Adamstown, Pitcairn Islands

Now
72 °F

Mild.


Feels Like: 74 °F
Forecast: 70 / 74 °F
Wind: 14 mph from Southeast

Location: Rikitea

Current Time: Sep 18, 2014 at 12:16:19 PM

Latest Report: Sep 18, 2014 at 11:00 AM


Visibility: N/A

Pressure: 30.16 "Hg

Humidity: 74%

Dew point: 63 °F

Location of AdamstownLocation

Historic Weather in Adamstown — Graph

°F

Adamstown temperature yesterday

Maximum temperature yesterday: 72 °F (at 2:00 PM)
Minimum temperature yesterday: 64 °F (at 7:00 AM)
Average temperature yesterday: 68 °F

Past Weeks' High & Low Weather Summary

 TemperatureHumidityPressure
High79 °F (Sep 15, 12:00 PM)97% (Sep 16, 8:00 AM)30.32 "Hg (Sep 16, 8:00 AM)
Low64 °F (Sep 4, 7:00 PM)58% (Sep 7, 4:00 PM)29.90 "Hg (Sep 15, 3:00 AM)
Average70 °F79%30.11 "Hg
* Reported Sep 3 11:00 AM — Sep 18 11:00 AM, Adamstown, Weather by CustomWeather, © 2014

Note: Actual official high and low records may vary slightly from our data, if they occured in-between our weather recording intervals... More about our weather records

Advertising

Adamstown weather history for previous 24 hours

 ConditionsComfort  
Time TempWeatherWind HumidityBarometerVisibility
11:00 AM
Sep 18
72 °FMild.14 mph74%30.16 "HgN/A
10:00 AM71 °FPartly sunny.14 mph74%30.16 "Hg19 mi
9:00 AM70 °FPartly sunny.12 mph76%30.15 "Hg19 mi
8:00 AM69 °FMild.12 mph77%30.13 "HgN/A
7:00 AM68 °FPassing clouds.13 mph77%30.11 "Hg19 mi
6:00 AM68 °FMild.14 mph79%30.09 "HgN/A
5:00 AM68 °FMild.12 mph76%30.06 "HgN/A
4:00 AM68 °FMild.13 mph75%30.07 "HgN/A
3:00 AM68 °FMild.12 mph76%30.09 "HgN/A
2:00 AM68 °FMild.12 mph78%30.10 "HgN/A
1:00 AM68 °FMild.12 mph77%30.12 "HgN/A
12:00 AM68 °FMild.12 mph80%30.12 "HgN/A
11:00 PM
Sep 17
69 °FMild.10 mph78%30.12 "HgN/A
10:00 PM68 °FMild.9 mph82%30.12 "HgN/A
9:00 PM68 °FMild.9 mph80%30.11 "HgN/A
8:00 PM68 °FMild.9 mph77%30.09 "HgN/A
7:00 PM68 °FMild.9 mph76%30.06 "HgN/A
6:00 PM69 °FPassing clouds.9 mph77%30.05 "Hg19 mi
5:00 PM70 °FScattered clouds.8 mph73%30.03 "Hg16 mi
4:00 PM71 °FPartly sunny.9 mph72%30.02 "Hg16 mi
3:00 PM71 °FPartly sunny.9 mph77%30.02 "Hg16 mi
2:00 PM72 °FMild.8 mph80%30.03 "HgN/A
1:00 PM71 °FPartly sunny.9 mph83%30.06 "Hg16 mi
12:00 PM71 °FOvercast.9 mph85%30.07 "Hg16 mi
Weather by CustomWeather, © 2014

See weather overviewHow to use our weather pages